ASTRA 2F

Last updated on Jan. 16, 2021, 6:28 a.m. UTC

1 38778U 12051A   21015.74825833  .00000143  00000-0  00000-0 0  9999
2 38778   0.0903 246.7979 0003589   4.6729 161.4729  1.00269098 21271
UTC
Height (km)
Latitude
Longitude
Inclination
Orbital Period
UTC large
Height (km)
Speed (km/s)
/
Latitude / Longitude
Inclination (degrees)
Orbital Period (minutes)
Azimuth
Elevation
Range (km)
Doppler Factor
iOS Compass Heading
iOS Angle

Next 30 passes for location: Hong Kong

Rise time Rise Azimuth (degrees) Set time Set Azimuth (degrees) Duration Max altitude (degrees)

No matching passes for this satellites